This is the latest recevied weather packets stored in our database for station/object OK1OBR-13. If no packets are shown the sender has not sent any weather packets the latest 1 day(s).
| Time | Temp. | Humidity | Pressure | Rain* | Wind** | Luminosity | Snow |
|---|---|---|---|---|---|---|---|
| 1778023381 | 13.33° C | 81% | 928.8 hPa | 0 mm | 0.89 m/s, 285° | - | - |
| 1778023321 | 13.33° C | 79% | 928.8 hPa | 0 mm | 0.89 m/s, 302° | - | - |
| 1778023261 | 13.33° C | 79% | 928.6 hPa | 0 mm | 0.89 m/s, 285° | - | - |
| 1778023201 | 13.33° C | 77% | 928.7 hPa | 0 mm | 0.89 m/s, 295° | - | - |
| 1778023141 | 13.33° C | 75% | 928.9 hPa | 0 mm | 0.89 m/s, 295° | - | - |
| 1778023082 | 13.33° C | 72% | 928.8 hPa | 0 mm | 0.89 m/s, 295° | - | - |
| 1778023021 | 13.33° C | 70% | 928.8 hPa | 0 mm | 0.45 m/s, 294° | - | - |
| 1778022961 | 13.33° C | 70% | 928.7 hPa | 0 mm | 1.79 m/s, 242° | - | - |
| 1778022902 | 13.33° C | 68% | 928.6 hPa | 0 mm | 0.45 m/s, 237° | - | - |
| 1778022841 | 13.33° C | 68% | 928.8 hPa | 0 mm | 1.34 m/s, 241° | - | - |
| 1778022781 | 13.33° C | 67% | 928.6 hPa | 0 mm | 0.89 m/s, 218° | - | - |
| 1778022721 | 13.33° C | 67% | 928.7 hPa | 0 mm | 0.89 m/s, 227° | - | - |
| 1778022661 | 13.33° C | 67% | 928.8 hPa | 0 mm | 0.45 m/s, 217° | - | - |
| 1778022601 | 13.33° C | 67% | 928.6 hPa | 0 mm | 0.89 m/s, 216° | - | - |
| 1778022541 | 13.33° C | 67% | 928.6 hPa | 0 mm | 0.89 m/s, 213° | - | - |
| 1778022481 | 13.33° C | 66% | 928.5 hPa | 0 mm | 0.89 m/s, 208° | - | - |
| 1778022421 | 13.33° C | 66% | 928.6 hPa | 0 mm | 1.34 m/s, 213° | - | - |
| 1778022362 | 13.33° C | 66% | 928.5 hPa | 0 mm | 1.34 m/s, 207° | - | - |
| 1778022301 | 13.33° C | 66% | 928.6 hPa | 0 mm | 0.89 m/s, 211° | - | - |
| 1778022241 | 13.33° C | 66% | 928.5 hPa | 0 mm | 1.34 m/s, 201° | - | - |
| 1778022180 | 13.33° C | 66% | 928.6 hPa | 0 mm | 0.89 m/s, 220° | - | - |
| 1778022121 | 13.33° C | 66% | 928.4 hPa | 0 mm | 0.89 m/s, 209° | - | - |
| 1778022001 | 13.33° C | 66% | 928.6 hPa | 0 mm | 0.89 m/s, 206° | - | - |
| 1778021941 | 13.33° C | 66% | 928.6 hPa | 0 mm | 0.89 m/s, 224° | - | - |
| 1778021881 | 13.33° C | 66% | 928.6 hPa | 0 mm | 0.89 m/s, 219° | - | - |
* Rain since midnight (hover to see other rain measurements)
** Current wind speed in m/s (hover to see current wind gust speed)